Location: Anjeux
(47.8815°N, 6.2076°E)
Time: 03:34:25
(UTC+00:00)

First-Move - Pass Details

Date: 05 December 2021
Orbit: 574 x 664 km, 97.6° (Epoch: 22 January)

Event Time Altitude Azimuth Distance (km) Brightness Sun altitude
Rises 05:40:04 0° 358° (N) 3,003 ? -14.1°
Reaches altitude 10° 05:43:03 10° 337° (NNW) 2,094 ? -13.6°
Enters shadow 05:43:40 12° 330° (NNW) 1,956 ? -13.5°
